User: anonymous   Login
Location: Unspecified
(0.0000°N, 0.0000°E)
Time: 14:14:35
(UTC+00:00)
Language:

COSMOS 2481 - Orbit

View from above orbital plane
View from above orbital plane
View from above satellite
View from above satellite

Ground track
Ground track

The orbit data is extracted from the following two-line orbital elements,

1 38733U 12041A   18267.79857801 +.00000030 +00000-0 +14720-3 0  9991
2 38733 082.4758 034.7455 0019240 102.7069 050.5567 12.42375815279351
Epoch (UTC): 24 September 2018 19:09:57
Eccentricity: 0.0019240
inclination: 82.4758°
perigee height: 1481 km
apogee height: 1511 km
right ascension of ascending node: 34.7455°
argument of perigee: 102.7069°
revolutions per day: 12.42375815
mean anomaly at epoch: 50.5567°
orbit number at epoch: 27935

The dashed part of the orbit path shows where the satellite is in the earth's shadow,  

DLR